星链-1062 (STARLINK-1062 )

导读

STARLINK-1062是美国SpaceX公司星链(Starlink)星座的V1.0版本卫星,于2019年11月11日发射入轨,属于星链早期组网卫星。它运行在近地轨道,配备氪霍尔推进器与自主避撞系统,依托Ku/Ka波段通信技术,为全球提供低延迟宽带互联网接入服务,单星设计寿命约5-7年,是星链全球覆盖进程中的重要组成单元。

基本信息
目录编号:
44767
目录名称:
STARLINK-1062
国际标识:
2019-074BG
轨道中心:
EARTH
卫星名称:
星链-1062
卫星全名:
星链-1062 (STARLINK-1062 )
卫星状态:
已陨落 最后检测时间 2025-03-29
发射日期:
2019-11-11 UTC
国别 :
美国 (US)
星等 :
--
轨道信息
数据来源 国际轨道数据
星历时间: 2025-03-29T19:29:48+0800
轨道信息已过期485天
半长轴: 6525.279km
偏心率: 0.0007595
轨道倾角: 53.016°
近地点辐角 264.453°
升交点赤经 273.906°
平近点角 184.548°
近地点: 142.188km
远地点: 152.1km
周期: 87.430分钟
每日圈数: 16.470402
详细信息
固有亮度:
5
最大亮度:
2.5
卫星平台:
Starlink V1.0
覆盖范围:
全球
运营商:
太空探索技术公司
运营商所在国:
美国
制造商(研发单位):
太空探索技术公司
制造商所在国:
美国
使用方式:
暂无
卫星简介
星链(Starlink)计划是由太空探索技术公司(SpaceX)提出的一个巨型低轨卫星互联网星座项目,计划在2019年至2024年间在太空搭建由约1.2万颗卫星组成的“星链”网络,其中1584颗将部署在地球上空550千米处的近地轨道,并从2020年开始工作。该卫星仍在工作。